Location: Conflandey
(47.7287°N, 6.0456°E)
Time: 22:09:03
(UTC+00:00)

Cosmos 1190 Rocket - Pass Details

Date: 24 October 2021
Orbit: 756 x 780 km, 74.1° (Epoch: 05 December)

Event Time Altitude Azimuth Distance (km) Brightness Sun altitude
Rises 18:54:53 0° 338° (NNW) 3,226 7.7 -24.8°
Reaches altitude 10° 18:57:16 10° 341° (NNW) 2,298 6.8 -25.2°
Enters shadow 19:02:04 69° 27° (NNE) 815 3.9 -26.0°
